RH
36 35 34 33 32 32 33 33 34 34 33 34 38 41 42 41 42 40 38 34 29 27 26 24 22 20 16 16 16 16 15 16 17 20 21 17 18 18 18 18 17 17 17
38 37 36 36 36 36 36 36 35 35 38 47 50 49 46 46 42 39 33 29 26 23 22 21 20 18 17 16 16 16 16 16 17 18 21 20 19 19 18 18 19 18 17
45 43 42 40 39 39 40 40 43 45 52 54 53 50 46 43 40 35 32 29 26 24 24 22 21 20 18 17 16 16 16 15 17 17 18 18 18 18 18 18 19 18 18
56 54 53 52 51 51 50 51 52 58 61 57 51 46 45 42 40 37 33 32 32 32 30 28 26 23 21 20 18 19 19 17 18 20 19 19 20 19 20 21 21 20 20
40 45 50 53 52 55 58 61 59 55 51 49 49 48 47 46 41 38 37 37 37 35 33 30 29 26 24 24 23 24 24 24 23 23 23 21 21 22 23 23 22 22 22
53 54 50 46 43 44 46 51 51 51 49 48 46 43 42 40 41 44 48 44 39 36 33 31 31 29 27 28 28 32 33 32 30 30 28 25 23 24 24 24 23 24 28
77 81 84 89 99 92 80 69 63 61 60 60 58 54 48 45 44 50 49 44 44 44 40 34 33 32 33 35 42 40 40 43 41 38 37 33 28 26 26 30 33 35 34
91 82 74 73 80 79 78 78 84 88 83 77 73 68 65 59 58 56 52 52 50 48 46 44 45 44 44 39 45 56 55 56 54 48 46 44 40 38 39 42 46 46 45
99 95 89 78 70 72 74 70 65 59 62 73 70 65 63 64 59 62 63 63 62 62 54 50 49 47 53 54 54 52 62 69 62 66 63 50 48 47 45 46 50 59 60
92 94 94 89 83 80 77 72 64 60 59 59 59 61 72 81 82 81 78 78 78 85 77 70 62 54 53 53 60 67 71 76 77 77 71 69 65 53 50 52 55 54 53
89 86 80 76 71 68 69 69 69 67 63 59 60 64 68 78 86 85 86 88 93 90 83 80 75 71 63 55 56 56 57 62 67 71 72 70 67 67 67 65 58 49 45
72 76 71 75 70 69 77 81 81 75 73 75 74 72 72 78 90 99 96 93 89 83 79 80 84 75 71 68 60 53 53 53 50 48 50 50 51 54 56 59 60 62 60
62 63 67 70 67 64 62 68 77 77 72 71 71 69 69 65 62 62 64 82 96 97 98 99 98 96 88 81 78 70 54 48 47 46 44 42 42 45 46 45 45 46 50
66 73 80 82 80 75 75 76 71 74 74 69 67 66 64 66 65 62 58 58 59 60 60 58 56 59 60 58 55 58 58 55 54 49 44 40 38 37 36 34 34 37 40
47 42 40 46 51 53 55 56 60 60 54 51 56 52 52 52 55 57 57 58 63 64 64 70 70 71 71 70 66 68 56 53 62 63 52 48 45 43 38 35 34 32 32
48 47 44 42 41 38 36 35 36 39 41 42 41 45 48 49 47 48 50 56 64 73 82 85 90 86 85 92 91 81 71 68 68 64 68 62 53 46 42 41 38 36 34
41 37 39 38 37 39 41 43 41 45 46 45 43 44 44 40 42 38 36 41 47 49 56 63 65 73 75 72 67 71 77 79 78 72 64 54 48 45 42 38 34 32 30
37 37 38 38 38 39 38 39 43 43 44 44 43 42 42 39 36 36 34 33 37 39 40 44 48 51 55 59 61 58 52 47 46 46 43 41 37 34 32 32 30 29 27
27 26 26 25 25 26 27 28 30 32 32 32 32 31 32 33 32 32 30 29 26 26 26 27 29 34 41 44 42 40 37 37 33 33 32 30 29 29 27 27 26 24 22
25 21 18 16 16 18 18 18 18 19 20 20 21 22 24 25 25 24 22 21 21 21 21 21 21 23 24 24 26 25 22 23 23 22 21 19 18 17 17 17 16 16 15
19 17 14 14 15 15 15 15 16 16 16 17 17 18 19 19 19 19 20 20 20 20 19 18 18 19 18 18 18 17 16 16 16 15 15 14 13 13 12 12 12 12 11
15 14 14 14 14 14 14 13 13 13 13 14 15 16 16 16 16 15 16 17 18 17 17 17 17 17 17 16 15 14 14 14 14 12 12 11 10 9 9 9 9 9 8
14 13 12 12 12 12 12 12 12 12 12 13 14 14 14 14 14 14 14 14 14 14 15 15 15 15 15 14 14 14 13 13 13 12 11 11 10 10 9 9 8 8 8
12 12 12 12 12 12 12 12 12 13 13 13 13 13 13 13 14 15 15 15 15 15 15 15 15 15 14 14 13 13 12 12 13 13 12 11 11 10 10 10 10 10 10
12 12 12 12 12 12 13 13 14 14 15 15 15 15 15 14 14 13 13 13 13 14 14 13 13 13 13 13 13 14 14 14 14 13 12 11 11 11 10 10 10 10 10
12 13 14 14 14 14 15 15 15 15 15 16 16 15 14 14 14 14 14 14 14 13 13 12 12 12 12 12 12 12 14 14 14 13 12 12 12 12 12 11 10 10 10
Wind_Speed
45 46 46 47 47 48 49 50 50 50 50 48 48 47 47 47 47 46 47 47 48 49 49 50 51 50 49 48 48 47 47 46 50 50 50 50 48 46 44 44 46 46 44
48 49 50 50 51 52 53 53 53 52 51 50 49 49 49 49 50 50 50 50 50 51 51 51 52 52 52 51 51 50 50 48 49 53 53 54 52 50 49 48 48 49 48
49 51 52 52 53 54 54 55 54 53 52 52 51 52 52 54 54 53 53 54 54 54 54 54 54 54 54 54 54 53 52 52 51 52 56 57 56 55 54 52 51 51 50
46 49 51 54 55 56 56 56 55 54 53 54 55 56 57 58 58 58 57 57 56 56 56 56 56 55 55 55 55 55 54 54 54 52 53 56 58 58 57 55 52 52 51
46 48 50 52 53 54 54 55 56 57 58 59 60 61 62 63 62 62 60 60 60 59 59 57 56 56 55 56 56 56 54 54 54 54 53 53 56 56 56 54 51 53 52
48 51 52 55 56 58 59 61 62 63 64 65 65 66 66 66 65 65 64 65 62 60 58 57 55 54 54 55 56 56 56 56 56 55 54 53 52 52 53 54 54 52 50
52 53 54 55 58 60 61 63 65 67 67 68 68 69 70 69 69 67 66 61 56 55 54 53 53 53 52 53 56 57 57 57 57 57 55 54 54 53 53 53 53 53 53
61 62 63 64 65 65 65 64 65 65 66 67 67 67 68 69 68 67 62 59 59 60 58 57 56 55 54 55 56 58 59 59 59 61 60 59 58 57 57 57 57 57 57
69 70 71 71 72 72 72 72 72 71 69 71 72 72 70 68 65 64 64 66 67 67 65 64 63 63 62 60 59 60 62 63 63 64 64 66 66 65 65 66 65 65 64
74 75 76 77 77 78 78 79 79 78 79 79 78 78 76 74 73 72 73 74 74 73 72 71 70 68 68 68 67 67 66 67 67 68 68 69 71 72 74 74 73 73 73
80 82 83 85 85 83 84 83 82 81 81 80 79 80 80 80 80 81 81 81 80 80 80 80 79 77 76 74 74 74 74 74 75 75 75 75 74 75 77 78 80 82 83
80 81 82 83 83 83 83 84 85 85 84 84 84 83 82 82 83 84 86 88 89 88 88 87 85 86 85 84 83 83 82 82 81 81 82 82 82 83 83 83 83 83 84
88 89 89 89 90 91 91 91 92 94 94 95 94 93 93 92 91 91 90 91 93 94 95 95 94 94 93 93 93 93 91 91 90 90 89 89 89 89 89 90 89 89 89
97 98 99 100 99 100 102 102 102 103 103 102 102 103 102 102 101 101 100 99 98 99 100 100 100 100 99 97 98 98 97 96 95 94 94 96 96 96 96 96 94 94 94
101 100 101 103 104 107 108 109 109 109 108 109 110 112 111 109 108 109 109 108 108 107 105 106 107 107 106 106 105 104 101 99 100 100 98 96 95 96 97 98 98 99 99
107 109 108 107 107 107 106 106 105 107 107 106 104 105 106 108 106 105 105 105 107 107 107 107 107 107 107 108 107 105 103 103 103 102 102 101 99 97 95 95 97 97 99
104 103 104 105 107 107 107 107 106 106 106 107 106 105 106 106 106 105 102 103 104 103 103 102 102 102 102 101 99 99 101 102 104 104 104 104 103 102 102 101 101 101 104
98 97 98 100 103 104 105 107 109 110 110 112 112 111 111 111 109 109 108 106 107 107 107 106 105 103 104 103 103 104 105 105 106 106 107 106 105 104 104 105 106 108 110
98 99 101 103 104 104 105 106 107 107 107 109 110 111 112 113 112 111 111 110 108 108 107 107 106 106 107 108 108 107 107 108 109 109 110 109 108 109 110 109 110 112 112
105 108 109 109 109 109 110 110 110 110 109 109 110 111 111 111 112 112 110 108 108 107 107 106 105 105 106 105 106 107 107 107 107 109 108 108 107 109 110 108 107 108 110
111 112 111 108 108 108 108 108 108 108 109 111 112 112 113 113 113 114 114 113 112 112 112 111 110 109 107 107 107 106 106 106 107 106 107 108 107 107 107 106 105 106 106
107 105 103 101 102 103 103 101 100 101 101 101 102 105 108 111 111 110 110 111 113 113 111 109 108 107 107 106 106 105 104 104 104 105 104 103 102 100 99 99 100 99 99
101 100 99 96 94 94 92 91 90 89 89 91 93 95 96 97 96 97 99 100 101 101 102 101 101 101 101 100 98 97 97 96 96 96 96 95 92 89 88 86 86 85 84
89 88 86 85 84 84 84 82 82 82 83 85 85 87 87 87 87 88 88 89 89 90 91 92 92 91 91 90 90 89 88 88 88 88 88 86 83 81 79 77 76 75 73
78 77 77 77 77 77 79 77 76 77 78 80 82 83 83 84 84 84 84 85 85 85 84 84 84 84 82 81 80 80 80 80 80 80 80 79 78 77 75 73 71 69 67
72 71 71 70 71 71 71 71 70 72 73 76 77 79 80 80 80 81 81 81 82 82 82 82 81 79 77 76 74 73 73 72 72 73 73 73 71 69 67 66 66 65 62
Wind_Direction
259 259 261 262 263 264 266 268 270 271 273 274 274 274 274 275 276 276 275 275 275 274 273 272 271 270 269 268 267 266 265 264 259 257 256 255 257 257 258 258 256 255 252
261 262 263 264 265 266 268 269 271 271 272 272 272 273 274 276 277 278 278 277 277 276 275 273 272 270 269 268 266 265 264 262 259 255 254 254 255 256 256 257 255 254 253
262 263 265 266 267 267 268 269 270 270 270 270 271 273 275 276 277 277 278 279 279 278 277 276 275 273 270 268 267 266 264 263 261 257 254 253 254 256 257 258 255 254 254
267 267 268 267 267 268 268 269 269 269 269 270 271 273 275 277 278 279 279 278 277 278 278 277 276 273 271 268 266 265 263 262 259 258 257 255 256 258 259 258 254 252 252
267 269 270 270 271 271 271 271 271 271 271 273 274 275 276 276 276 277 277 277 277 277 277 276 276 274 271 268 266 263 261 260 257 256 255 255 254 254 255 252 249 252 250
266 267 266 267 268 268 269 270 271 272 272 273 273 273 273 273 274 275 276 276 277 276 276 275 274 273 270 267 266 264 260 258 254 253 253 252 252 251 250 249 249 246 246
272 272 272 272 272 271 270 269 270 270 271 272 272 272 271 272 273 274 275 274 272 272 274 273 272 271 269 266 264 263 262 259 255 253 252 252 250 248 247 246 246 245 245
273 273 273 273 273 273 273 273 273 273 273 273 273 273 273 272 272 272 270 268 269 272 273 273 272 271 270 267 264 262 261 260 257 253 251 250 248 247 245 245 246 246 248
274 275 275 274 273 273 273 273 273 273 274 275 274 273 272 273 272 270 267 271 272 273 273 272 272 270 269 267 265 263 262 261 259 257 254 251 250 249 249 247 246 246 249
275 274 274 273 273 274 274 274 274 275 274 274 274 274 273 273 271 269 269 270 271 271 272 273 271 270 269 267 265 263 262 261 261 260 258 256 253 252 250 250 249 249 251
274 275 275 275 276 276 277 276 276 276 276 275 274 273 272 271 270 270 270 269 269 269 270 271 272 271 271 269 267 265 263 261 261 260 260 259 258 256 255 254 253 252 252
271 272 272 272 273 275 275 275 275 276 275 274 273 272 272 272 271 270 271 272 271 271 271 270 270 270 270 268 267 266 265 264 262 260 260 260 259 259 259 257 257 257 256
275 274 272 272 271 271 270 270 272 274 274 273 273 274 272 270 269 269 268 269 270 271 271 270 269 269 269 269 269 268 266 265 264 263 262 262 260 260 259 258 258 257 258
276 275 274 273 273 272 272 271 271 271 272 273 273 273 272 271 270 269 268 268 268 270 270 271 271 271 271 271 270 269 268 267 265 264 264 263 262 261 260 259 259 258 258
278 278 276 274 272 272 272 272 272 271 271 271 271 271 271 270 270 270 270 270 269 269 269 268 268 269 270 271 271 270 270 270 269 268 268 266 264 262 261 260 259 257 257
279 278 275 274 275 275 274 273 272 271 270 270 269 269 267 268 268 268 268 269 269 270 269 269 269 269 269 269 268 268 269 269 269 269 269 269 268 266 264 263 261 260 257
277 275 275 274 273 273 273 273 272 272 272 271 270 269 269 269 269 268 268 268 268 268 269 269 268 268 268 268 268 268 268 268 268 267 266 265 265 265 265 264 262 260 258
274 274 273 273 272 270 270 269 269 269 269 269 269 269 268 268 268 268 268 267 267 267 266 267 267 267 268 268 268 269 268 268 268 268 267 268 268 266 265 265 263 261 259
274 273 273 271 270 269 268 268 267 266 266 267 267 268 268 268 269 269 268 268 267 267 267 267 268 268 268 268 268 269 269 268 267 267 267 267 267 266 265 265 264 263 262
274 273 273 272 271 270 270 270 270 269 269 268 268 267 267 268 268 269 269 269 269 268 268 268 268 268 268 267 268 268 268 268 267 267 267 266 265 264 264 263 264 264 263
274 276 276 275 274 273 273 272 271 271 270 269 268 268 268 268 268 269 269 269 269 269 270 270 269 269 270 270 269 269 269 270 270 269 268 267 265 264 264 264 264 264 264
277 277 277 276 276 275 275 273 272 272 270 269 268 267 268 268 267 267 267 267 268 269 269 269 269 270 270 270 270 270 270 270 270 269 269 268 267 266 265 264 264 263 264
277 278 278 277 276 275 274 274 273 272 270 268 268 268 268 267 267 267 267 267 267 267 268 268 269 269 269 269 269 269 269 269 269 269 269 269 268 267 266 266 266 265 265
277 276 276 275 274 273 273 272 272 271 271 270 269 268 268 268 268 268 268 268 268 269 269 269 269 269 269 269 269 269 269 270 269 269 268 268 268 267 266 266 265 266 265
274 274 273 273 273 272 272 272 271 270 270 269 269 269 268 268 268 267 267 267 267 267 267 267 267 268 268 268 269 269 269 269 269 268 267 266 265 266 266 266 266 265 264
275 274 274 274 272 272 272 272 271 270 270 269 269 269 268 268 267 267 267 267 267 267 267 268 268 268 268 268 268 268 268 268 266 266 265 264 265 265 265 265 265 265 263